Time,TemperatureF,DewpointF,PressureIn,WindDirection,WindDirectionDegrees,WindSpeedMPH,WindSpeedGustMPH,Humidity,HourlyPrecipIn,Conditions,Clouds,dailyrainin,SoftwareType,DateUTC
2013-12-19 00:00:00,25.3,20.6,29.77,ESE,111,1.0,1.0,82,0.00,,,0.00,Wunderground v.1.15,2013-12-19 05:00:00,
2013-12-19 00:05:00,25.6,21.2,29.77,SE,136,1.0,1.0,83,0.00,,,0.00,Wunderground v.1.15,2013-12-19 05:05:00,
2013-12-19 00:10:00,25.9,21.4,29.77,SE,129,1.0,1.0,83,0.00,,,0.00,Wunderground v.1.15,2013-12-19 05:10:00,
2013-12-19 00:15:00,26.2,22.0,29.76,SSE,156,0.0,1.0,84,0.00,,,0.00,Wunderground v.1.15,2013-12-19 05:15:00,
2013-12-19 00:20:00,26.6,22.4,29.76,SSE,150,1.0,1.0,84,0.00,,,0.00,Wunderground v.1.15,2013-12-19 05:20:00,
2013-12-19 00:25:00,26.9,22.7,29.77,East,82,1.0,1.0,84,0.00,,,0.00,Wunderground v.1.15,2013-12-19 05:25:00,
2013-12-19 00:30:00,27.4,23.5,29.77,SSW,193,1.0,1.0,85,0.00,,,0.00,Wunderground v.1.15,2013-12-19 05:30:00,
2013-12-19 00:35:00,27.8,23.9,29.76,South,175,1.0,5.0,85,0.00,,,0.00,Wunderground v.1.15,2013-12-19 05:35:00,
2013-12-19 00:40:00,28.4,24.7,29.76,SSW,205,2.0,2.0,86,0.00,,,0.00,Wunderground v.1.15,2013-12-19 05:40:00,
2013-12-19 00:45:00,29.3,25.4,29.76,SSW,208,4.0,10.0,85,0.00,,,0.00,Wunderground v.1.15,2013-12-19 05:45:00,
2013-12-19 00:55:00,29.8,25.6,29.75,SSW,202,7.0,7.0,84,0.00,,,0.00,Wunderground v.1.15,2013-12-19 05:55:00,
2013-12-19 01:00:00,29.8,25.8,29.75,SSW,202,6.0,6.0,85,0.00,,,0.00,Wunderground v.1.15,2013-12-19 06:00:00,
2013-12-19 01:10:00,29.8,25.8,29.75,SSW,200,5.0,5.0,85,0.00,,,0.00,Wunderground v.1.15,2013-12-19 06:10:00,
2013-12-19 01:15:00,29.9,25.9,29.75,SSW,197,5.0,5.0,85,0.00,,,0.00,Wunderground v.1.15,2013-12-19 06:15:00,
2013-12-19 01:20:00,29.8,25.8,29.75,SSW,205,5.0,5.0,85,0.00,,,0.00,Wunderground v.1.15,2013-12-19 06:20:00,
2013-12-19 01:30:00,29.8,26.1,29.75,SSW,205,4.0,4.0,86,0.00,,,0.00,Wunderground v.1.15,2013-12-19 06:30:00,
2013-12-19 01:35:00,30.0,26.6,29.75,SSW,200,4.0,6.0,87,0.00,,,0.00,Wunderground v.1.15,2013-12-19 06:35:00,
2013-12-19 01:40:00,30.1,26.7,29.75,SSW,203,4.0,4.0,87,0.00,,,0.00,Wunderground v.1.15,2013-12-19 06:40:00,
2013-12-19 01:45:00,30.2,26.8,29.75,SSW,192,4.0,4.0,87,0.00,,,0.00,Wunderground v.1.15,2013-12-19 06:45:00,
2013-12-19 01:50:00,30.4,27.0,29.75,SSW,200,5.0,10.0,87,0.00,,,0.00,Wunderground v.1.15,2013-12-19 06:50:00,
2013-12-19 01:55:00,30.5,27.1,29.75,SSW,211,5.0,10.0,87,0.00,,,0.00,Wunderground v.1.15,2013-12-19 06:55:00,
2013-12-19 02:05:00,30.9,27.5,29.76,SW,219,6.0,7.0,87,0.00,,,0.00,Wunderground v.1.15,2013-12-19 07:05:00,
2013-12-19 02:15:00,31.2,28.1,29.76,SSW,213,6.0,6.0,88,0.00,,,0.00,Wunderground v.1.15,2013-12-19 07:15:00,
2013-12-19 02:20:00,31.3,28.2,29.76,SSW,202,6.0,6.0,88,0.00,,,0.00,Wunderground v.1.15,2013-12-19 07:20:00,
2013-12-19 02:25:00,31.5,28.4,29.76,SSW,207,6.0,9.0,88,0.00,,,0.00,Wunderground v.1.15,2013-12-19 07:25:00,
2013-12-19 02:35:00,31.8,28.7,29.77,SW,223,6.0,7.0,88,0.00,,,0.00,Wunderground v.1.15,2013-12-19 07:35:00,
2013-12-19 02:40:00,31.9,28.8,29.77,SW,226,6.0,6.0,88,0.00,,,0.00,Wunderground v.1.15,2013-12-19 07:40:00,
2013-12-19 02:45:00,31.9,28.8,29.77,SW,229,6.0,6.0,88,0.00,,,0.00,Wunderground v.1.15,2013-12-19 07:45:00,
2013-12-19 02:50:00,31.9,28.8,29.77,SW,223,6.0,6.0,88,0.00,,,0.00,Wunderground v.1.15,2013-12-19 07:50:00,
2013-12-19 02:55:00,32.0,28.8,29.77,SW,225,6.0,6.0,88,0.00,,,0.00,Wunderground v.1.15,2013-12-19 07:55:00,
2013-12-19 03:00:00,32.0,28.8,29.78,SW,223,6.0,8.0,88,0.00,,,0.00,Wunderground v.1.15,2013-12-19 08:00:00,
2013-12-19 03:05:00,32.1,28.9,29.78,SW,225,6.0,8.0,88,0.00,,,0.00,Wunderground v.1.15,2013-12-19 08:05:00,
2013-12-19 03:15:00,32.5,29.3,29.78,SW,221,6.0,7.0,88,0.00,,,0.00,Wunderground v.1.15,2013-12-19 08:15:00,
2013-12-19 03:20:00,32.6,29.4,29.79,SW,227,6.0,6.0,88,0.00,,,0.00,Wunderground v.1.15,2013-12-19 08:20:00,
2013-12-19 03:35:00,32.6,29.2,29.78,WSW,237,6.0,7.0,87,0.00,,,0.00,Wunderground v.1.15,2013-12-19 08:35:00,
2013-12-19 03:45:00,32.6,29.4,29.78,SW,236,6.0,6.0,88,0.00,,,0.00,Wunderground v.1.15,2013-12-19 08:45:00,
2013-12-19 03:50:00,32.7,29.3,29.79,WSW,237,6.0,6.0,87,0.00,,,0.00,Wunderground v.1.15,2013-12-19 08:50:00,
2013-12-19 03:55:00,32.8,29.4,29.79,SW,235,7.0,8.0,87,0.00,,,0.00,Wunderground v.1.15,2013-12-19 08:55:00,
2013-12-19 04:00:00,33.1,29.1,29.79,WSW,248,9.0,10.0,85,0.00,,,0.00,Wunderground v.1.15,2013-12-19 09:00:00,
2013-12-19 04:05:00,33.4,29.1,29.79,WSW,244,10.0,10.0,84,0.00,,,0.00,Wunderground v.1.15,2013-12-19 09:05:00,
2013-12-19 04:15:00,33.1,28.2,29.80,WSW,244,12.0,12.0,82,0.00,,,0.00,Wunderground v.1.15,2013-12-19 09:15:00,
2013-12-19 04:20:00,33.0,28.4,29.80,WSW,246,12.0,12.0,83,0.00,,,0.00,Wunderground v.1.15,2013-12-19 09:20:00,
2013-12-19 04:25:00,32.8,27.9,29.80,WSW,248,11.0,12.0,82,0.00,,,0.00,Wunderground v.1.15,2013-12-19 09:25:00,
2013-12-19 04:30:00,32.6,28.0,29.81,WSW,246,11.0,11.0,83,0.00,,,0.00,Wunderground v.1.15,2013-12-19 09:30:00,
2013-12-19 04:35:00,32.4,27.5,29.81,WSW,250,11.0,11.0,82,0.00,,,0.00,Wunderground v.1.15,2013-12-19 09:35:00,
2013-12-19 04:40:00,32.1,27.5,29.81,WSW,255,10.0,10.0,83,0.00,,,0.00,Wunderground v.1.15,2013-12-19 09:40:00,
2013-12-19 04:50:00,31.9,27.3,29.81,WSW,246,10.0,10.0,83,0.00,,,0.00,Wunderground v.1.15,2013-12-19 09:50:00,
2013-12-19 04:55:00,31.8,26.9,29.82,WSW,248,10.0,11.0,82,0.00,,,0.00,Wunderground v.1.15,2013-12-19 09:55:00,
2013-12-19 05:00:00,31.7,27.1,29.82,West,261,9.0,10.0,83,0.00,,,0.00,Wunderground v.1.15,2013-12-19 10:00:00,
2013-12-19 05:10:00,31.5,26.9,29.82,WSW,244,10.0,10.0,83,0.00,,,0.00,Wunderground v.1.15,2013-12-19 10:10:00,
2013-12-19 05:15:00,31.4,27.4,29.82,WSW,246,9.0,11.0,85,0.00,,,0.00,Wunderground v.1.15,2013-12-19 10:15:00,
2013-12-19 05:20:00,31.2,26.6,29.82,WSW,250,10.0,10.0,83,0.00,,,0.00,Wunderground v.1.15,2013-12-19 10:20:00,
2013-12-19 05:30:00,31.1,26.5,29.83,WSW,257,11.0,12.0,83,0.00,,,0.00,Wunderground v.1.15,2013-12-19 10:30:00,
2013-12-19 05:35:00,31.0,26.4,29.83,West,259,11.0,14.0,83,0.00,,,0.00,Wunderground v.1.15,2013-12-19 10:35:00,
2013-12-19 05:40:00,31.0,26.1,29.83,WSW,250,11.0,11.0,82,0.00,,,0.00,Wunderground v.1.15,2013-12-19 10:40:00,
2013-12-19 05:45:00,30.8,26.5,29.84,WSW,257,10.0,11.0,84,0.00,,,0.00,Wunderground v.1.15,2013-12-19 10:45:00,
2013-12-19 05:50:00,30.7,26.1,29.84,West,271,10.0,10.0,83,0.00,,,0.00,Wunderground v.1.15,2013-12-19 10:50:00,
2013-12-19 06:00:00,30.7,26.1,29.84,West,271,10.0,10.0,83,0.00,,,0.00,Wunderground v.1.15,2013-12-19 11:00:00,
2013-12-19 06:05:00,30.6,26.1,29.84,West,268,10.0,11.0,83,0.00,,,0.00,Wunderground v.1.15,2013-12-19 11:05:00,
2013-12-19 06:15:00,30.5,26.2,29.85,West,263,9.0,11.0,84,0.00,,,0.00,Wunderground v.1.15,2013-12-19 11:15:00,
2013-12-19 06:20:00,30.4,25.9,29.85,West,263,9.0,9.0,83,0.00,,,0.00,Wunderground v.1.15,2013-12-19 11:20:00,
2013-12-19 06:30:00,30.2,25.7,29.84,West,259,9.0,9.0,83,0.00,,,0.00,Wunderground v.1.15,2013-12-19 11:30:00,
2013-12-19 06:35:00,30.3,25.8,29.84,West,264,9.0,9.0,83,0.00,,,0.00,Wunderground v.1.15,2013-12-19 11:35:00,
2013-12-19 06:40:00,30.2,25.7,29.85,West,263,8.0,8.0,83,0.00,,,0.00,Wunderground v.1.15,2013-12-19 11:40:00,
2013-12-19 06:45:00,30.2,25.9,29.86,WSW,252,7.0,8.0,84,0.00,,,0.00,Wunderground v.1.15,2013-12-19 11:45:00,
2013-12-19 06:50:00,30.2,25.9,29.86,West,263,8.0,9.0,84,0.00,,,0.00,Wunderground v.1.15,2013-12-19 11:50:00,
2013-12-19 06:55:00,30.3,26.0,29.86,West,275,8.0,9.0,84,0.00,,,0.00,Wunderground v.1.15,2013-12-19 11:55:00,
2013-12-19 07:05:00,30.1,25.6,29.86,West,265,8.0,8.0,83,0.00,,,0.00,Wunderground v.1.15,2013-12-19 12:05:00,
2013-12-19 07:20:00,30.1,25.3,29.89,West,264,8.0,9.0,82,0.00,,,0.00,Wunderground v.1.15,2013-12-19 12:20:00,
2013-12-19 07:25:00,30.2,25.4,29.88,West,261,8.0,9.0,82,0.00,,,0.00,Wunderground v.1.15,2013-12-19 12:25:00,
2013-12-19 07:30:00,30.2,25.1,29.88,WSW,255,8.0,9.0,81,0.00,,,0.00,Wunderground v.1.15,2013-12-19 12:30:00,
2013-12-19 07:40:00,30.3,25.2,29.89,West,269,8.0,10.0,81,0.00,,,0.00,Wunderground v.1.15,2013-12-19 12:40:00,
2013-12-19 07:45:00,30.4,25.6,29.89,WNW,285,7.0,10.0,82,0.00,,,0.00,Wunderground v.1.15,2013-12-19 12:45:00,
2013-12-19 07:50:00,30.4,25.6,29.90,West,266,7.0,8.0,82,0.00,,,0.00,Wunderground v.1.15,2013-12-19 12:50:00,
2013-12-19 07:55:00,30.3,25.5,29.91,West,265,7.0,8.0,82,0.00,,,0.00,Wunderground v.1.15,2013-12-19 12:55:00,
2013-12-19 08:00:00,30.2,25.4,29.91,West,268,7.0,7.0,82,0.00,,,0.00,Wunderground v.1.15,2013-12-19 13:00:00,
2013-12-19 08:05:00,30.2,25.4,29.91,West,267,7.0,7.0,82,0.00,,,0.00,Wunderground v.1.15,2013-12-19 13:05:00,
2013-12-19 08:15:00,30.1,25.3,29.91,West,279,7.0,8.0,82,0.00,,,0.00,Wunderground v.1.15,2013-12-19 13:15:00,
2013-12-19 08:20:00,30.0,25.2,29.91,West,272,7.0,7.0,82,0.00,,,0.00,Wunderground v.1.15,2013-12-19 13:20:00,
2013-12-19 08:25:00,30.0,25.2,29.91,West,263,6.0,7.0,82,0.00,,,0.00,Wunderground v.1.15,2013-12-19 13:25:00,
2013-12-19 08:30:00,29.9,25.1,29.91,West,278,6.0,6.0,82,0.00,,,0.00,Wunderground v.1.15,2013-12-19 13:30:00,
2013-12-19 08:35:00,29.9,25.1,29.91,West,278,4.0,6.0,82,0.00,,,0.00,Wunderground v.1.15,2013-12-19 13:35:00,
2013-12-19 08:45:00,-999.9,-99.9,29.92,North,32767,-999.0,0.0,255,-99.99,,,0.00,Wunderground v.1.15,2013-12-19 13:45:00,
2013-12-19 08:50:00,-999.9,-99.9,29.92,North,32767,-999.0,0.0,255,-99.99,,,0.00,Wunderground v.1.15,2013-12-19 13:50:00,
2013-12-19 08:55:00,-999.9,-99.9,29.92,North,32767,-999.0,0.0,255,-99.99,,,0.00,Wunderground v.1.15,2013-12-19 13:55:00,
2013-12-19 09:05:00,-999.9,-99.9,29.93,North,32767,-999.0,0.0,255,-99.99,,,0.00,Wunderground v.1.15,2013-12-19 14:05:00,
2013-12-19 09:15:00,-999.9,-99.9,29.93,North,32767,-999.0,0.0,255,-99.99,,,0.00,Wunderground v.1.15,2013-12-19 14:15:00,
2013-12-19 09:20:00,-999.9,-99.9,29.94,North,32767,-999.0,0.0,255,-99.99,,,0.00,Wunderground v.1.15,2013-12-19 14:20:00,
2013-12-19 09:30:00,-999.9,-99.9,29.95,North,32767,-999.0,0.0,255,-99.99,,,0.00,Wunderground v.1.15,2013-12-19 14:30:00,
2013-12-19 09:35:00,-999.9,-99.9,29.95,North,32767,-999.0,0.0,255,-99.99,,,0.00,Wunderground v.1.15,2013-12-19 14:35:00,
2013-12-19 09:40:00,-999.9,-99.9,29.95,North,32767,-999.0,0.0,255,-99.99,,,0.00,Wunderground v.1.15,2013-12-19 14:40:00,
2013-12-19 09:50:00,30.2,25.9,29.96,West,265,2.0,5.0,84,0.00,,,0.00,Wunderground v.1.15,2013-12-19 14:50:00,
2013-12-19 09:55:00,30.5,26.8,29.96,WNW,288,4.0,8.0,86,0.00,,,0.00,Wunderground v.1.15,2013-12-19 14:55:00,
2013-12-19 10:00:00,30.6,26.9,29.96,NW,307,5.0,5.0,86,0.00,,,0.00,Wunderground v.1.15,2013-12-19 15:00:00,
2013-12-19 10:05:00,30.7,26.7,29.96,WNW,289,5.0,5.0,85,0.00,,,0.00,Wunderground v.1.15,2013-12-19 15:05:00,
2013-12-19 10:15:00,30.9,27.2,29.97,WNW,288,6.0,7.0,86,0.00,,,0.00,Wunderground v.1.15,2013-12-19 15:15:00,
2013-12-19 10:25:00,30.9,26.9,29.98,WNW,300,4.0,6.0,85,0.00,,,0.00,Wunderground v.1.15,2013-12-19 15:25:00,
2013-12-19 10:30:00,30.9,26.9,29.98,NW,304,5.0,8.0,85,0.00,,,0.00,Wunderground v.1.15,2013-12-19 15:30:00,
2013-12-19 10:35:00,30.9,26.9,29.98,WNW,294,5.0,8.0,85,0.00,,,0.00,Wunderground v.1.15,2013-12-19 15:35:00,
2013-12-19 10:40:00,30.8,26.8,29.99,WNW,288,5.0,5.0,85,0.00,,,0.00,Wunderground v.1.15,2013-12-19 15:40:00,
2013-12-19 10:45:00,30.7,26.7,29.99,WNW,288,5.0,5.0,85,0.00,,,0.00,Wunderground v.1.15,2013-12-19 15:45:00,
2013-12-19 10:55:00,30.7,27.0,30.00,WNW,283,5.0,8.0,86,0.00,,,0.00,Wunderground v.1.15,2013-12-19 15:55:00,
2013-12-19 11:00:00,30.6,26.6,30.00,NW,322,6.0,7.0,85,0.00,,,0.00,Wunderground v.1.15,2013-12-19 16:00:00,
2013-12-19 11:05:00,30.5,26.5,30.01,NNW,346,6.0,7.0,85,0.00,,,0.00,Wunderground v.1.15,2013-12-19 16:05:00,
2013-12-19 11:15:00,30.5,26.2,30.01,North,350,5.0,5.0,84,0.00,,,0.00,Wunderground v.1.15,2013-12-19 16:15:00,
2013-12-19 11:20:00,30.5,26.2,30.02,NW,322,4.0,4.0,84,0.00,,,0.00,Wunderground v.1.15,2013-12-19 16:20:00,
2013-12-19 11:30:00,30.4,25.6,30.02,NW,305,4.0,4.0,82,0.00,,,0.00,Wunderground v.1.15,2013-12-19 16:30:00,
2013-12-19 11:35:00,30.3,25.5,30.02,WNW,300,4.0,4.0,82,0.00,,,0.00,Wunderground v.1.15,2013-12-19 16:35:00,
2013-12-19 11:40:00,30.2,25.4,30.02,NW,319,2.0,2.0,82,0.00,,,0.00,Wunderground v.1.15,2013-12-19 16:40:00,
2013-12-19 11:45:00,30.2,25.4,30.02,NNW,337,2.0,2.0,82,0.00,,,0.00,Wunderground v.1.15,2013-12-19 16:45:00,
2013-12-19 11:50:00,30.2,25.4,30.02,NNW,331,1.0,1.0,82,0.00,,,0.00,Wunderground v.1.15,2013-12-19 16:50:00,
2013-12-19 12:00:00,30.2,25.7,30.02,WNW,294,3.0,6.0,83,0.00,,,0.00,Wunderground v.1.15,2013-12-19 17:00:00,
2013-12-19 12:05:00,30.2,25.9,30.02,NNW,333,3.0,6.0,84,0.00,,,0.00,Wunderground v.1.15,2013-12-19 17:05:00,
2013-12-19 12:15:00,30.2,25.7,30.03,NW,311,3.0,3.0,83,0.00,,,0.00,Wunderground v.1.15,2013-12-19 17:15:00,
2013-12-19 12:20:00,30.1,25.6,30.03,NW,307,2.0,4.0,83,0.00,,,0.00,Wunderground v.1.15,2013-12-19 17:20:00,
2013-12-19 12:25:00,30.1,25.6,30.03,NW,318,2.0,4.0,83,0.00,,,0.00,Wunderground v.1.15,2013-12-19 17:25:00,
2013-12-19 12:35:00,30.1,25.6,30.03,NW,322,3.0,4.0,83,0.00,,,0.00,Wunderground v.1.15,2013-12-19 17:35:00,
2013-12-19 12:40:00,30.1,25.6,30.03,NW,323,2.0,2.0,83,0.00,,,0.00,Wunderground v.1.15,2013-12-19 17:40:00,
2013-12-19 12:45:00,30.1,25.6,30.03,NW,305,3.0,5.0,83,0.00,,,0.00,Wunderground v.1.15,2013-12-19 17:45:00,
2013-12-19 12:55:00,30.0,25.5,30.03,NW,308,3.0,4.0,83,0.00,,,0.00,Wunderground v.1.15,2013-12-19 17:55:00,
2013-12-19 13:00:00,29.9,25.4,30.04,NW,312,2.0,2.0,83,0.00,,,0.00,Wunderground v.1.15,2013-12-19 18:00:00,
2013-12-19 13:05:00,29.8,25.3,30.04,NW,308,3.0,3.0,83,0.00,,,0.00,Wunderground v.1.15,2013-12-19 18:05:00,
2013-12-19 13:15:00,29.7,25.2,30.04,NW,310,2.0,4.0,83,0.00,,,0.00,Wunderground v.1.15,2013-12-19 18:15:00,
2013-12-19 13:20:00,29.7,25.5,30.04,NW,321,2.0,5.0,84,0.00,,,0.00,Wunderground v.1.15,2013-12-19 18:20:00,
2013-12-19 13:25:00,29.7,25.2,30.04,NNW,329,2.0,5.0,83,0.00,,,0.00,Wunderground v.1.15,2013-12-19 18:25:00,
2013-12-19 13:30:00,29.7,25.2,30.04,NW,306,2.0,2.0,83,0.00,,,0.00,Wunderground v.1.15,2013-12-19 18:30:00,
2013-12-19 13:35:00,29.7,25.5,30.04,NNW,332,1.0,2.0,84,0.00,,,0.00,Wunderground v.1.15,2013-12-19 18:35:00,
2013-12-19 13:40:00,29.6,25.1,30.04,NW,304,1.0,1.0,83,0.00,,,0.00,Wunderground v.1.15,2013-12-19 18:40:00,
2013-12-19 13:45:00,29.6,25.1,30.03,NW,318,1.0,1.0,83,0.00,,,0.00,Wunderground v.1.15,2013-12-19 18:45:00,
2013-12-19 13:50:00,29.6,24.8,30.03,NW,313,1.0,2.0,82,0.00,,,0.00,Wunderground v.1.15,2013-12-19 18:50:00,
2013-12-19 13:55:00,29.6,24.8,30.03,NW,324,1.0,2.0,82,0.00,,,0.00,Wunderground v.1.15,2013-12-19 18:55:00,
2013-12-19 14:00:00,29.6,24.5,30.03,NNW,343,1.0,4.0,81,0.00,,,0.00,Wunderground v.1.15,2013-12-19 19:00:00,
2013-12-19 14:05:00,29.7,24.6,30.03,North,11,2.0,4.0,81,0.00,,,0.00,Wunderground v.1.15,2013-12-19 19:05:00,
2013-12-19 14:15:00,29.6,24.5,30.03,NW,309,2.0,2.0,81,0.00,,,0.00,Wunderground v.1.15,2013-12-19 19:15:00,
2013-12-19 14:20:00,29.6,24.5,30.04,NW,322,1.0,1.0,81,0.00,,,0.00,Wunderground v.1.15,2013-12-19 19:20:00,
2013-12-19 14:25:00,29.6,24.5,30.04,NW,323,1.0,1.0,81,0.00,,,0.00,Wunderground v.1.15,2013-12-19 19:25:00,
2013-12-19 14:30:00,29.6,24.5,30.05,NW,309,1.0,2.0,81,0.00,,,0.00,Wunderground v.1.15,2013-12-19 19:30:00,
2013-12-19 14:35:00,29.5,24.4,30.05,NW,322,2.0,2.0,81,0.00,,,0.00,Wunderground v.1.15,2013-12-19 19:35:00,
2013-12-19 14:45:00,29.4,24.3,30.06,NNW,338,1.0,1.0,81,0.00,,,0.00,Wunderground v.1.15,2013-12-19 19:45:00,
2013-12-19 14:50:00,29.3,24.2,30.06,NNW,337,1.0,1.0,81,0.00,,,0.00,Wunderground v.1.15,2013-12-19 19:50:00,
2013-12-19 14:55:00,29.3,24.5,30.06,NNW,338,0.0,1.0,82,0.00,,,0.00,Wunderground v.1.15,2013-12-19 19:55:00,
2013-12-19 15:00:00,29.3,24.5,30.06,NNW,338,0.0,0.0,82,0.00,,,0.00,Wunderground v.1.15,2013-12-19 20:00:00,
2013-12-19 15:05:00,29.3,24.2,30.06,NW,325,0.0,0.0,81,0.00,,,0.00,Wunderground v.1.15,2013-12-19 20:05:00,
2013-12-19 15:15:00,29.2,24.1,30.06,NW,323,1.0,1.0,81,0.00,,,0.00,Wunderground v.1.15,2013-12-19 20:15:00,
2013-12-19 15:20:00,28.9,23.8,30.06,NW,313,3.0,6.0,81,0.00,,,0.00,Wunderground v.1.15,2013-12-19 20:20:00,
2013-12-19 15:30:00,28.5,23.4,30.06,NW,308,2.0,2.0,81,0.00,,,0.00,Wunderground v.1.15,2013-12-19 20:30:00,
2013-12-19 15:35:00,28.5,23.4,30.07,NW,323,1.0,2.0,81,0.00,,,0.00,Wunderground v.1.15,2013-12-19 20:35:00,
2013-12-19 15:40:00,28.4,23.3,30.07,NNW,331,1.0,4.0,81,0.00,,,0.00,Wunderground v.1.15,2013-12-19 20:40:00,
2013-12-19 15:45:00,28.4,23.3,30.06,NNW,335,1.0,4.0,81,0.00,,,0.00,Wunderground v.1.15,2013-12-19 20:45:00,
2013-12-19 15:55:00,28.3,23.2,30.07,North,5,1.0,3.0,81,0.00,,,0.00,Wunderground v.1.15,2013-12-19 20:55:00,
2013-12-19 16:00:00,28.3,22.9,30.07,NNW,340,0.0,4.0,80,0.00,,,0.00,Wunderground v.1.15,2013-12-19 21:00:00,
2013-12-19 16:05:00,28.1,22.4,30.07,North,5,1.0,4.0,79,0.00,,,0.00,Wunderground v.1.15,2013-12-19 21:05:00,
2013-12-19 16:15:00,28.0,22.3,30.07,NNW,328,2.0,5.0,79,0.00,,,0.00,Wunderground v.1.15,2013-12-19 21:15:00,
2013-12-19 16:25:00,27.8,22.1,30.07,NW,322,1.0,2.0,79,0.00,,,0.00,Wunderground v.1.15,2013-12-19 21:25:00,
2013-12-19 16:30:00,27.7,22.0,30.06,NNW,344,1.0,1.0,79,0.00,,,0.00,Wunderground v.1.15,2013-12-19 21:30:00,
2013-12-19 16:35:00,27.6,22.2,30.06,NNW,345,1.0,1.0,80,0.00,,,0.00,Wunderground v.1.15,2013-12-19 21:35:00,
2013-12-19 16:45:00,27.5,22.1,30.06,NNW,348,0.0,1.0,80,0.00,,,0.00,Wunderground v.1.15,2013-12-19 21:45:00,
2013-12-19 16:50:00,27.4,22.0,30.06,NW,315,1.0,1.0,80,0.00,,,0.00,Wunderground v.1.15,2013-12-19 21:50:00,
2013-12-19 16:55:00,27.3,22.2,30.07,NNW,333,1.0,4.0,81,0.00,,,0.00,Wunderground v.1.15,2013-12-19 21:55:00,
2013-12-19 17:00:00,27.2,22.1,30.07,NW,325,1.0,3.0,81,0.00,,,0.00,Wunderground v.1.15,2013-12-19 22:00:00,
2013-12-19 17:10:00,27.1,22.3,30.07,NW,315,1.0,1.0,82,0.00,,,0.00,Wunderground v.1.15,2013-12-19 22:10:00,
2013-12-19 17:15:00,27.0,22.2,30.07,North,355,0.0,1.0,82,0.00,,,0.00,Wunderground v.1.15,2013-12-19 22:15:00,
2013-12-19 17:20:00,26.9,22.1,30.07,NW,316,1.0,1.0,82,0.00,,,0.00,Wunderground v.1.15,2013-12-19 22:20:00,
2013-12-19 17:25:00,26.8,22.0,30.07,NNW,348,1.0,1.0,82,0.00,,,0.00,Wunderground v.1.15,2013-12-19 22:25:00,
2013-12-19 17:35:00,26.6,21.6,30.08,NW,312,2.0,4.0,81,0.00,,,0.00,Wunderground v.1.15,2013-12-19 22:35:00,
2013-12-19 17:40:00,26.5,21.5,30.08,NNW,348,2.0,2.0,81,0.00,,,0.00,Wunderground v.1.15,2013-12-19 22:40:00,
2013-12-19 17:45:00,26.4,21.4,30.08,North,349,2.0,2.0,81,0.00,,,0.00,Wunderground v.1.15,2013-12-19 22:45:00,
2013-12-19 17:50:00,26.3,21.3,30.08,NE,42,2.0,2.0,81,0.00,,,0.00,Wunderground v.1.15,2013-12-19 22:50:00,
2013-12-19 17:55:00,26.2,21.2,30.08,NNW,342,2.0,2.0,81,0.00,,,0.00,Wunderground v.1.15,2013-12-19 22:55:00,
2013-12-19 18:05:00,26.1,21.1,30.08,NW,313,2.0,2.0,81,0.00,,,0.00,Wunderground v.1.15,2013-12-19 23:05:00,
2013-12-19 18:15:00,25.7,20.7,30.08,North,349,2.0,4.0,81,0.00,,,0.00,Wunderground v.1.15,2013-12-19 23:15:00,
2013-12-19 18:20:00,25.6,20.6,30.08,NNW,335,2.0,2.0,81,0.00,,,0.00,Wunderground v.1.15,2013-12-19 23:20:00,
2013-12-19 18:25:00,25.4,20.4,30.08,NNW,335,3.0,3.0,81,0.00,,,0.00,Wunderground v.1.15,2013-12-19 23:25:00,
2013-12-19 18:30:00,25.3,20.3,30.08,NNW,340,2.0,4.0,81,0.00,,,0.00,Wunderground v.1.15,2013-12-19 23:30:00,
2013-12-19 18:40:00,25.1,20.1,30.08,NNW,336,1.0,1.0,81,0.00,,,0.00,Wunderground v.1.15,2013-12-19 23:40:00,
2013-12-19 18:45:00,25.0,20.0,30.08,North,355,0.0,1.0,81,0.00,,,0.00,Wunderground v.1.15,2013-12-19 23:45:00,
2013-12-19 18:50:00,24.9,19.9,30.08,NNW,341,0.0,5.0,81,0.00,,,0.00,Wunderground v.1.15,2013-12-19 23:50:00,
2013-12-19 18:55:00,24.9,19.9,30.08,NW,325,1.0,5.0,81,0.00,,,0.00,Wunderground v.1.15,2013-12-19 23:55:00,
2013-12-19 19:00:00,24.8,19.8,30.09,North,355,1.0,1.0,81,0.00,,,0.00,Wunderground v.1.15,2013-12-20 00:00:00,
2013-12-19 19:05:00,24.8,19.8,30.09,NNW,338,1.0,1.0,81,0.00,,,0.00,Wunderground v.1.15,2013-12-20 00:05:00,
2013-12-19 19:15:00,24.7,19.4,30.09,NNW,345,1.0,3.0,80,0.00,,,0.00,Wunderground v.1.15,2013-12-20 00:15:00,
2013-12-19 19:20:00,24.6,19.3,30.09,NNW,329,1.0,1.0,80,0.00,,,0.00,Wunderground v.1.15,2013-12-20 00:20:00,
2013-12-19 19:25:00,24.5,19.2,30.09,NNW,340,0.0,1.0,80,0.00,,,0.00,Wunderground v.1.15,2013-12-20 00:25:00,
2013-12-19 19:30:00,24.5,19.2,30.09,NW,315,0.0,0.0,80,0.00,,,0.00,Wunderground v.1.15,2013-12-20 00:30:00,
2013-12-19 19:35:00,24.4,19.1,30.09,North,349,0.0,0.0,80,0.00,,,0.00,Wunderground v.1.15,2013-12-20 00:35:00,
2013-12-19 19:45:00,24.4,19.4,30.10,NNW,332,0.0,0.0,81,0.00,,,0.00,Wunderground v.1.15,2013-12-20 00:45:00,
2013-12-19 19:50:00,24.4,19.7,30.11,West,276,0.0,0.0,82,0.00,,,0.00,Wunderground v.1.15,2013-12-20 00:50:00,
2013-12-19 19:55:00,24.4,19.7,30.11,WNW,299,0.0,0.0,82,0.00,,,0.00,Wunderground v.1.15,2013-12-20 00:55:00,
2013-12-19 20:00:00,24.4,19.7,30.11,WNW,299,0.0,0.0,82,0.00,,,0.00,Wunderground v.1.15,2013-12-20 01:00:00,
2013-12-19 20:05:00,24.4,19.7,30.13,WNW,299,0.0,0.0,82,0.00,,,0.00,Wunderground v.1.15,2013-12-20 01:05:00,
2013-12-19 20:15:00,24.3,19.6,30.13,WNW,299,0.0,0.0,82,0.00,,,0.00,Wunderground v.1.15,2013-12-20 01:15:00,
2013-12-19 20:20:00,24.3,19.6,30.13,WNW,292,0.0,0.0,82,0.00,,,0.00,Wunderground v.1.15,2013-12-20 01:20:00,
2013-12-19 20:25:00,24.3,19.6,30.13,WNW,292,0.0,0.0,82,0.00,,,0.00,Wunderground v.1.15,2013-12-20 01:25:00,
2013-12-19 20:30:00,24.3,19.6,30.12,WNW,292,0.0,0.0,82,0.00,,,0.00,Wunderground v.1.15,2013-12-20 01:30:00,
2013-12-19 20:40:00,24.2,19.5,30.11,WNW,294,0.0,0.0,82,0.00,,,0.00,Wunderground v.1.15,2013-12-20 01:40:00,
2013-12-19 20:45:00,24.2,19.5,30.11,WNW,294,0.0,0.0,82,0.00,,,0.00,Wunderground v.1.15,2013-12-20 01:45:00,
2013-12-19 20:50:00,24.1,19.4,30.11,NE,37,0.0,0.0,82,0.00,,,0.00,Wunderground v.1.15,2013-12-20 01:50:00,
2013-12-19 20:55:00,24.1,19.4,30.10,NE,37,0.0,0.0,82,0.00,,,0.00,Wunderground v.1.15,2013-12-20 01:55:00,
2013-12-19 21:05:00,24.0,19.6,30.09,NE,37,0.0,0.0,83,0.00,,,0.00,Wunderground v.1.15,2013-12-20 02:05:00,
2013-12-19 21:15:00,24.0,19.6,30.08,NNE,22,0.0,0.0,83,0.00,,,0.00,Wunderground v.1.15,2013-12-20 02:15:00,
2013-12-19 21:20:00,23.9,19.5,30.09,NNE,14,0.0,0.0,83,0.00,,,0.00,Wunderground v.1.15,2013-12-20 02:20:00,
2013-12-19 21:25:00,23.9,19.5,30.08,NE,48,0.0,0.0,83,0.00,,,0.00,Wunderground v.1.15,2013-12-20 02:25:00,
2013-12-19 21:30:00,23.9,19.5,30.08,NNW,329,0.0,0.0,83,0.00,,,0.00,Wunderground v.1.15,2013-12-20 02:30:00,
2013-12-19 21:40:00,23.9,19.5,30.09,NNE,18,0.0,0.0,83,0.00,,,0.00,Wunderground v.1.15,2013-12-20 02:40:00,
2013-12-19 21:45:00,23.9,19.5,30.09,NNE,18,0.0,0.0,83,0.00,,,0.00,Wunderground v.1.15,2013-12-20 02:45:00,
2013-12-19 21:50:00,23.9,19.5,30.08,NNE,18,0.0,0.0,83,0.00,,,0.00,Wunderground v.1.15,2013-12-20 02:50:00,
2013-12-19 21:55:00,23.9,19.8,30.08,NNE,18,0.0,0.0,84,0.00,,,0.00,Wunderground v.1.15,2013-12-20 02:55:00,
2013-12-19 22:00:00,23.9,19.8,30.08,NNE,18,0.0,0.0,84,0.00,,,0.00,Wunderground v.1.15,2013-12-20 03:00:00,
2013-12-19 22:05:00,23.8,19.7,30.07,NNE,24,0.0,0.0,84,0.00,,,0.00,Wunderground v.1.15,2013-12-20 03:05:00,
2013-12-19 22:15:00,23.8,19.7,30.07,NE,46,1.0,1.0,84,0.00,,,0.00,Wunderground v.1.15,2013-12-20 03:15:00,
2013-12-19 22:20:00,23.8,19.7,30.07,NNW,338,0.0,0.0,84,0.00,,,0.00,Wunderground v.1.15,2013-12-20 03:20:00,
2013-12-19 22:25:00,23.8,19.9,30.06,NNW,343,1.0,1.0,85,0.00,,,0.00,Wunderground v.1.15,2013-12-20 03:25:00,
2013-12-19 22:30:00,23.8,19.9,30.06,NNW,328,0.0,0.0,85,0.00,,,0.00,Wunderground v.1.15,2013-12-20 03:30:00,
2013-12-19 22:35:00,23.8,19.9,30.06,NNW,333,0.0,0.0,85,0.00,,,0.00,Wunderground v.1.15,2013-12-20 03:35:00,
2013-12-19 22:40:00,23.7,19.6,30.06,NNW,346,0.0,1.0,84,0.00,,,0.00,Wunderground v.1.15,2013-12-20 03:40:00,
2013-12-19 22:50:00,23.6,19.8,30.07,NNW,327,1.0,1.0,85,0.00,,,0.00,Wunderground v.1.15,2013-12-20 03:50:00,
2013-12-19 22:55:00,23.6,19.5,30.06,North,360,1.0,2.0,84,0.00,,,0.00,Wunderground v.1.15,2013-12-20 03:55:00,
2013-12-19 23:00:00,23.5,19.4,30.07,NNW,340,1.0,1.0,84,0.00,,,0.00,Wunderground v.1.15,2013-12-20 04:00:00,
2013-12-19 23:05:00,23.5,19.4,30.07,ENE,59,1.0,1.0,84,0.00,,,0.00,Wunderground v.1.15,2013-12-20 04:05:00,
2013-12-19 23:15:00,23.4,19.3,30.07,NNW,327,0.0,1.0,84,0.00,,,0.00,Wunderground v.1.15,2013-12-20 04:15:00,
2013-12-19 23:20:00,23.3,19.2,30.07,NE,47,0.0,2.0,84,0.00,,,0.00,Wunderground v.1.15,2013-12-20 04:20:00,
2013-12-19 23:25:00,23.2,19.1,30.07,NNW,330,1.0,4.0,84,0.00,,,0.00,Wunderground v.1.15,2013-12-20 04:25:00,
2013-12-19 23:30:00,23.1,19.0,30.07,North,355,1.0,1.0,84,0.00,,,0.00,Wunderground v.1.15,2013-12-20 04:30:00,
2013-12-19 23:35:00,23.0,18.9,30.07,NNW,348,1.0,1.0,84,0.00,,,0.00,Wunderground v.1.15,2013-12-20 04:35:00,
2013-12-19 23:40:00,23.0,19.2,30.08,NE,42,1.0,1.0,85,0.00,,,0.00,Wunderground v.1.15,2013-12-20 04:40:00,
2013-12-19 23:45:00,22.9,19.1,30.08,NE,42,0.0,1.0,85,0.00,,,0.00,Wunderground v.1.15,2013-12-20 04:45:00,
2013-12-19 23:50:00,22.8,19.0,30.07,NE,53,0.0,0.0,85,0.00,,,0.00,Wunderground v.1.15,2013-12-20 04:50:00,